Hourly Weather Russow

Today, 22 April, Thursday

Time Temperature Precipitation Wind Pressure Humidity
00:00 +6°C° 0.2 mm 4 mps 748 mmHg 85%
01:00 +5°C° 0 mm 4 mps 748 mmHg 92%
02:00 +5°C° 0.3 mm 4 mps 748 mmHg 89%
03:00 +5°C° 0.3 mm 4 mps 748 mmHg 86%
04:00 +5°C° 0.3 mm 4 mps 748 mmHg 83%
05:00 +3°C° 0.1 mm 5 mps 749 mmHg 80%
06:00 +3°C° 0.1 mm 5 mps 749 mmHg 78%
07:00 +2°C° 0 mm 6 mps 749 mmHg 74%
08:00 +3°C° 0 mm 7 mps 750 mmHg 71%
09:00 +3°C° 0 mm 7 mps 750 mmHg 68%
10:00 +4°C° 0 mm 7 mps 751 mmHg 65%
11:00 +4°C° 0 mm 7 mps 751 mmHg 62%
12:00 +5°C° 0 mm 7 mps 751 mmHg 59%
13:00 +5°C° 0 mm 7 mps 751 mmHg 56%
14:00 +6°C° 0.2 mm 7 mps 751 mmHg 58%
15:00 +6°C° 0.2 mm 7 mps 751 mmHg 59%
16:00 +6°C° 0.2 mm 7 mps 750 mmHg 61%
17:00 +5°C° 0.3 mm 6 mps 751 mmHg 68%
18:00 +5°C° 0.3 mm 5 mps 751 mmHg 75%
19:00 +4°C° 0.3 mm 4 mps 751 mmHg 81%
20:00 +3°C° 0.1 mm 3 mps 751 mmHg 83%
21:00 +3°C° 0.1 mm 3 mps 751 mmHg 84%
22:00 +2°C° 0.1 mm 3 mps 752 mmHg 85%
23:00 +2°C° 0 mm 3 mps 752 mmHg 85%

Tomorrow, 23 April, Friday

Time Temperature Precipitation Wind Pressure Humidity
00:00 +1°C° 0 mm 3 mps 752 mmHg 86%
01:00 -1°C° 0 mm 4 mps 752 mmHg 86%
02:00 -1°C° 0 mm 4 mps 752 mmHg 88%
03:00 -1°C° 0 mm 4 mps 753 mmHg 90%
04:00 -2°C° 0 mm 4 mps 753 mmHg 92%
05:00 -1°C° 0.1 mm 4 mps 753 mmHg 91%
06:00 0°C° 0.1 mm 5 mps 753 mmHg 91%
07:00 +1°C° 0.1 mm 6 mps 754 mmHg 90%
08:00 +2°C° 0 mm 6 mps 754 mmHg 82%
09:00 +3°C° 0 mm 6 mps 754 mmHg 75%
10:00 +4°C° 0 mm 7 mps 754 mmHg 67%
11:00 +4°C° 0.2 mm 7 mps 754 mmHg 67%
12:00 +5°C° 0.2 mm 7 mps 754 mmHg 67%
13:00 +5°C° 0.2 mm 7 mps 755 mmHg 67%
14:00 +5°C° 0.1 mm 7 mps 755 mmHg 67%
15:00 +5°C° 0.1 mm 7 mps 755 mmHg 68%
16:00 +4°C° 0.1 mm 7 mps 754 mmHg 68%
17:00 +5°C° 0.1 mm 5 mps 755 mmHg 71%
18:00 +4°C° 0.1 mm 4 mps 755 mmHg 74%
19:00 +4°C° 0.1 mm 3 mps 755 mmHg 78%
20:00 +3°C° 0 mm 3 mps 755 mmHg 76%
21:00 +2°C° 0 mm 3 mps 755 mmHg 75%
22:00 +1°C° 0 mm 3 mps 756 mmHg 74%
23:00 0°C° 0 mm 3 mps 756 mmHg 73%

Day after tomorrow, 24 April, Saturday

Time Temperature Precipitation Wind Pressure Humidity
00:00 0°C° 0 mm 3 mps 756 mmHg 72%
01:00 -1°C° 0 mm 3 mps 756 mmHg 71%
02:00 -1°C° 0 mm 3 mps 756 mmHg 70%
03:00 -1°C° 0 mm 3 mps 756 mmHg 70%
04:00 -1°C° 0 mm 3 mps 756 mmHg 69%
05:00 0°C° 0 mm 3 mps 756 mmHg 65%
06:00 +2°C° 0 mm 3 mps 756 mmHg 60%
07:00 +3°C° 0 mm 3 mps 756 mmHg 55%
08:00 +5°C° 0 mm 3 mps 756 mmHg 53%
09:00 +6°C° 0 mm 4 mps 756 mmHg 51%
10:00 +8°C° 0 mm 4 mps 755 mmHg 49%
11:00 +8°C° 0.1 mm 5 mps 755 mmHg 52%
12:00 +8°C° 0.1 mm 5 mps 755 mmHg 54%
13:00 +8°C° 0.1 mm 5 mps 755 mmHg 56%
14:00 +8°C° 0.1 mm 5 mps 754 mmHg 57%
15:00 +8°C° 0.1 mm 5 mps 754 mmHg 57%
16:00 +8°C° 0.1 mm 5 mps 754 mmHg 58%
17:00 +7°C° 0.1 mm 4 mps 754 mmHg 63%
18:00 +7°C° 0.1 mm 3 mps 754 mmHg 69%
19:00 +4°C° 0.1 mm 3 mps 754 mmHg 75%
20:00 +4°C° 0 mm 3 mps 754 mmHg 77%
21:00 +3°C° 0 mm 3 mps 754 mmHg 79%
22:00 +3°C° 0 mm 2 mps 754 mmHg 82%
23:00 +3°C° 0 mm 2 mps 754 mmHg 84%

25 April, Sunday

Time Temperature Precipitation Wind Pressure Humidity
00:00 +2°C° 0 mm 2 mps 754 mmHg 86%
01:00 +3°C° 0 mm 1 mps 754 mmHg 87%
02:00 +2°C° 0 mm 1 mps 754 mmHg 88%
03:00 +1°C° 0 mm 2 mps 754 mmHg 89%
04:00 +1°C° 0 mm 2 mps 754 mmHg 89%
05:00 +1°C° 0 mm 2 mps 755 mmHg 82%
06:00 +1°C° 0 mm 3 mps 755 mmHg 74%
07:00 +1°C° 0 mm 4 mps 755 mmHg 66%
08:00 +3°C° 0 mm 5 mps 755 mmHg 57%
09:00 +4°C° 0 mm 6 mps 755 mmHg 48%
10:00 +5°C° 0 mm 6 mps 755 mmHg 39%
11:00 +6°C° 0 mm 7 mps 755 mmHg 39%
12:00 +6°C° 0 mm 7 mps 755 mmHg 38%
13:00 +8°C° 0 mm 7 mps 754 mmHg 38%
14:00 +8°C° 0 mm 7 mps 754 mmHg 41%
15:00 +6°C° 0 mm 7 mps 754 mmHg 45%
16:00 +6°C° 0 mm 7 mps 754 mmHg 48%
17:00 +5°C° 0.1 mm 6 mps 754 mmHg 53%
18:00 +4°C° 0.1 mm 4 mps 754 mmHg 57%
19:00 +3°C° 0.1 mm 3 mps 754 mmHg 62%
20:00 +2°C° 0 mm 3 mps 754 mmHg 63%
21:00 +3°C° 0 mm 2 mps 754 mmHg 64%
22:00 +2°C° 0 mm 2 mps 754 mmHg 65%
23:00 +2°C° 0 mm 2 mps 754 mmHg 64%

26 April, Monday

Time Temperature Precipitation Wind Pressure Humidity
00:00 +2°C° 0 mm 2 mps 754 mmHg 63%
01:00 +1°C° 0 mm 2 mps 754 mmHg 62%
02:00 +1°C° 0 mm 2 mps 753 mmHg 64%
03:00 +1°C° 0 mm 2 mps 753 mmHg 67%
04:00 -1°C° 0 mm 3 mps 753 mmHg 69%
05:00 +1°C° 0 mm 3 mps 753 mmHg 66%
06:00 +3°C° 0 mm 2 mps 753 mmHg 64%
07:00 +5°C° 0 mm 2 mps 753 mmHg 61%
08:00 +5°C° 0 mm 3 mps 752 mmHg 57%
09:00 +7°C° 0 mm 3 mps 752 mmHg 53%
10:00 +8°C° 0 mm 3 mps 752 mmHg 49%
11:00 +9°C° 0 mm 3 mps 752 mmHg 46%
12:00 +10°C° 0 mm 3 mps 751 mmHg 43%
13:00 +10°C° 0 mm 4 mps 751 mmHg 39%
14:00 +10°C° 0 mm 3 mps 751 mmHg 39%
15:00 +10°C° 0 mm 3 mps 750 mmHg 39%
16:00 +10°C° 0 mm 3 mps 750 mmHg 39%
17:00 +9°C° 0 mm 2 mps 750 mmHg 43%
18:00 +7°C° 0 mm 2 mps 750 mmHg 48%
19:00 +7°C° 0 mm 1 mps 750 mmHg 53%
20:00 +6°C° 0 mm 1 mps 750 mmHg 53%
21:00 +6°C° 0 mm 1 mps 750 mmHg 53%
22:00 +5°C° 0 mm 1 mps 750 mmHg 53%
23:00 +5°C° 0 mm 1 mps 750 mmHg 55%

27 April, Tuesday

Time Temperature Precipitation Wind Pressure Humidity
00:00 +4°C° 0 mm 1 mps 750 mmHg 58%
01:00 +3°C° 0 mm 1 mps 750 mmHg 61%
02:00 +3°C° 0 mm 1 mps 749 mmHg 62%
03:00 +2°C° 0 mm 1 mps 749 mmHg 64%
04:00 +2°C° 0 mm 1 mps 749 mmHg 66%
05:00 +3°C° 0 mm 1 mps 749 mmHg 63%
06:00 +4°C° 0 mm 2 mps 749 mmHg 60%
07:00 +5°C° 0 mm 2 mps 749 mmHg 57%
08:00 +7°C° 0 mm 2 mps 749 mmHg 53%
09:00 +8°C° 0 mm 2 mps 748 mmHg 49%
10:00 +10°C° 0 mm 3 mps 748 mmHg 45%
11:00 +11°C° 0 mm 3 mps 748 mmHg 44%
12:00 +11°C° 0 mm 3 mps 747 mmHg 43%
13:00 +12°C° 0 mm 3 mps 747 mmHg 42%
14:00 +11°C° 0 mm 4 mps 746 mmHg 44%
15:00 +11°C° 0 mm 4 mps 746 mmHg 45%
16:00 +11°C° 0 mm 4 mps 746 mmHg 47%
17:00 +10°C° 0 mm 4 mps 746 mmHg 52%
18:00 +8°C° 0 mm 4 mps 745 mmHg 58%
19:00 +7°C° 0 mm 4 mps 745 mmHg 63%
20:00 +6°C° 0 mm 5 mps 745 mmHg 65%
21:00 +6°C° 0 mm 5 mps 745 mmHg 66%
22:00 +4°C° 0 mm 6 mps 745 mmHg 68%
23:00 +4°C° 0 mm 6 mps 745 mmHg 69%
Show more